Location: Newark
(43.0000°N, 1.6781°W)
Time: 09:10:36
(UTC+00:00)

Transit 4A - All Passes

Search period start: 07 October 2022 00:00
Search period end: 17 October 2022 00:00
Orbit: 870 x 974 km, 66.8° (Epoch: 06 October)

Date Brightness Start Highest point End Pass type
(mag) Time Alt. Az. Time Alt. Az. Time Alt. Az.
07 Oct - 04:24:46 10° N 04:29:08 21° NE 04:33:28 10° E visible
07 Oct - 06:10:20 10° NNW 06:16:13 83° WSW 06:22:01 10° SSE daylight
07 Oct - 07:59:35 10° W 08:01:33 12° W 08:03:33 10° WSW daylight
07 Oct - 19:33:41 10° SSE 19:37:54 19° ESE 19:42:03 10° ENE night (unlit)
07 Oct - 21:17:27 10° SW 21:23:38 73° WNW 21:29:41 10° NNE night (unlit)
07 Oct - 23:07:07 10° WNW 23:11:02 17° NW 23:14:55 10° N visible
08 Oct - 04:33:42 10° NNW 04:38:42 28° NE 04:43:38 10° ESE visible
08 Oct - 06:19:41 10° NW 06:25:23 56° WSW 06:31:02 10° SSE daylight
08 Oct - 19:41:42 10° SSE 19:46:54 29° ESE 19:52:00 10° NE visible
08 Oct - 21:26:58 10° SW 21:32:58 51° NW 21:38:51 10° NNE night (unlit)
08 Oct - 23:17:56 10° WNW 23:20:46 13° NNW 23:23:34 10° N visible
09 Oct - 02:59:03 10° NNE 03:00:01 10° NNE 03:01:00 10° NE visible
09 Oct - 04:42:43 10° NNW 04:48:11 38° NE 04:53:34 10° ESE visible
09 Oct - 06:29:10 10° NW 06:34:29 37° WSW 06:39:45 10° S daylight
09 Oct - 19:50:11 10° S 19:55:58 42° ESE 20:01:37 10° NE visible
09 Oct - 21:36:43 10° WSW 21:42:22 37° NW 21:47:55 10° NNE visible
09 Oct - 23:29:41 10° NW 23:30:35 10° NNW 23:31:28 10° NNW visible
10 Oct - 03:07:02 10° N 03:09:50 13° NNE 03:12:36 10° ENE visible
10 Oct - 04:51:49 10° NNW 04:57:34 54° NE 05:03:15 10° SE visible
10 Oct - 06:38:53 10° NW 06:43:30 25° WSW 06:48:06 10° SSW daylight
10 Oct - 19:59:00 10° SSW 20:05:06 63° ESE 20:11:03 10° NE visible
10 Oct - 21:46:43 10° WSW 21:51:51 27° NW 21:56:56 10° NNE visible
11 Oct - 03:15:42 10° N 03:19:33 17° NE 03:23:21 10° ENE visible
11 Oct - 05:01:00 10° NNW 05:06:52 78° ENE 05:12:40 10° SE visible
11 Oct - 06:49:01 10° WNW 06:52:27 16° WSW 06:55:53 10° SW daylight
11 Oct - 18:25:36 10° SE 18:28:47 15° ESE 18:31:54 10° ENE visible
11 Oct - 20:08:06 10° SSW 20:14:18 89° ESE 20:20:22 10° NNE visible
11 Oct - 21:56:58 10° W 22:01:26 21° NW 22:05:51 10° N visible
12 Oct - 03:24:34 10° N 03:29:11 23° NE 03:33:43 10° E visible
12 Oct - 05:10:16 10° NW 05:16:06 73° WSW 05:21:52 10° SSE visible
12 Oct - 18:33:07 10° SSE 18:37:44 22° ESE 18:42:15 10° ENE visible
12 Oct - 20:17:27 10° SW 20:23:35 65° NW 20:29:34 10° NNE visible
12 Oct - 22:07:33 10° WNW 22:11:07 16° NW 22:14:38 10° N visible
13 Oct - 03:33:32 10° NNW 03:38:42 31° NE 03:43:49 10° ESE visible
13 Oct - 05:19:39 10° NW 05:25:15 49° WSW 05:30:47 10° S visible
13 Oct - 18:41:20 10° S 18:46:45 33° ESE 18:52:04 10° NE visible
13 Oct - 20:27:03 10° SW 20:32:56 46° NW 20:38:41 10° NNE visible
13 Oct - 22:18:34 10° NW 22:20:52 12° NNW 22:23:09 10° N visible
14 Oct - 01:58:21 10° N 02:00:08 11° NNE 02:01:55 10° NE visible
14 Oct - 03:42:35 10° NNW 03:48:09 43° NE 03:53:39 10° ESE visible
14 Oct - 05:29:12 10° NW 05:34:19 32° WSW 05:39:24 10° S visible
14 Oct - 18:49:56 10° S 18:55:50 48° ESE 19:01:36 10° NE visible
14 Oct - 20:36:53 10° WSW 20:42:22 33° NW 20:47:45 10° NNE visible
15 Oct - 02:06:43 10° N 02:09:54 15° NNE 02:13:03 10° ENE visible
15 Oct - 03:51:42 10° NNW 03:57:30 62° NE 04:03:14 10° SE visible
15 Oct - 05:39:02 10° WNW 05:43:19 22° WSW 05:47:35 10° SSW visible
15 Oct - 17:18:44 10° ESE 17:19:41 10° E 17:20:37 10° E daylight
15 Oct - 18:58:51 10° SSW 19:04:59 71° ESE 19:10:59 10° NE visible
15 Oct - 20:46:58 10° W 20:51:53 25° NW 20:56:43 10° N visible
16 Oct - 02:15:28 10° N 02:19:35 19° NE 02:23:40 10° E visible
16 Oct - 04:00:54 10° NNW 04:06:47 88° ENE 04:12:35 10° SSE visible
16 Oct - 05:49:26 10° WNW 05:52:15 14° WSW 05:55:03 10° SW visible
16 Oct - 17:24:50 10° SE 17:28:35 17° ESE 17:32:17 10° ENE daylight
16 Oct - 19:08:03 10° SSW 19:14:13 81° WNW 19:20:15 10° NNE visible
16 Oct - 20:57:20 10° W 21:01:29 19° NW 21:05:36 10° N visible
